,,,PA_Meas_PMT16A,,PR_Meas_QMR101_102,,RH_Meas_QMH101,,SR_Meas_QMS101,,TA_Meas_QMH101,,GenWind,,GenWind,
date,time,status,PA,status,PR,status,RH,status,SR,status,TA,status,DirAvg,status,SpdAvg,
2010-05-04, 00:00:04,VALID,1007.16,VALID,0,VALID,102.177,VALID,0,VALID,24.5905,VALID,357,VALID,0,
2010-05-04, 00:01:04,VALID,1007.16,VALID,0,VALID,102.162,VALID,0,VALID,24.5886,VALID,357,VALID,0,
2010-05-04, 00:02:04,VALID,1007.17,VALID,0,VALID,102.185,VALID,0,VALID,24.5886,VALID,357,VALID,0,
2010-05-04, 00:03:04,VALID,1007.13,VALID,0,VALID,102.2,VALID,0,VALID,24.6099,VALID,357,VALID,0,
2010-05-04, 00:04:04,VALID,1007.17,VALID,0,VALID,102.2,VALID,0,VALID,24.5905,VALID,357,VALID,0,
2010-05-04, 00:05:04,VALID,1007.21,VALID,0,VALID,102.208,VALID,0,VALID,24.5905,VALID,357,VALID,0,
2010-05-04, 00:06:04,VALID,1007.19,VALID,0,VALID,102.208,VALID,0,VALID,24.5691,VALID,357,VALID,0,
2010-05-04, 00:07:04,VALID,1007.19,VALID,0,VALID,102.2,VALID,0,VALID,24.5905,VALID,357,VALID,0,
2010-05-04, 00:08:04,VALID,1007.21,VALID,0,VALID,102.223,VALID,0,VALID,24.5905,VALID,357,VALID,0,
2010-05-04, 00:09:04,VALID,1007.2,VALID,0,VALID,102.208,VALID,0,VALID,24.6294,VALID,103,VALID,0,
2010-05-04, 00:10:04,VALID,1007.21,VALID,0,VALID,102.231,VALID,0,VALID,24.6294,VALID,103,VALID,0,
2010-05-04, 00:11:04,VALID,1007.18,VALID,0,VALID,102.223,VALID,0,VALID,24.6684,VALID,103,VALID,0,
2010-05-04, 00:12:04,VALID,1007.15,VALID,0,VALID,102.223,VALID,0,VALID,24.6666,VALID,103,VALID,0,
2010-05-04, 00:13:04,VALID,1007.16,VALID,0,VALID,102.223,VALID,0,VALID,24.686,VALID,103,VALID,0,
2010-05-04, 00:14:04,VALID,1007.12,VALID,0,VALID,102.246,VALID,0,VALID,24.7074,VALID,103,VALID,0,
2010-05-04, 00:15:04,VALID,1007.12,VALID,0,VALID,102.223,VALID,0,VALID,24.6666,VALID,103,VALID,0,
2010-05-04, 00:16:04,VALID,1007.1,VALID,0,VALID,102.238,VALID,0,VALID,24.6879,VALID,103,VALID,0,
2010-05-04, 00:17:04,VALID,1007.11,VALID,0,VALID,102.216,VALID,0,VALID,24.6666,VALID,103,VALID,0,
2010-05-04, 00:18:04,VALID,1007.13,VALID,0,VALID,102.223,VALID,0,VALID,24.6666,VALID,103,VALID,0,
2010-05-04, 00:19:04,VALID,1007.13,VALID,0,VALID,102.223,VALID,0,VALID,24.6684,VALID,103,VALID,0,
2010-05-04, 00:20:04,VALID,1007.14,VALID,0,VALID,102.208,VALID,0,VALID,24.6666,VALID,103,VALID,0,
2010-05-04, 00:21:04,VALID,1007.12,VALID,0,VALID,102.2,VALID,0,VALID,24.6471,VALID,103,VALID,0,
2010-05-04, 00:22:04,VALID,1007.13,VALID,0,VALID,102.208,VALID,0,VALID,24.6471,VALID,103,VALID,0,
2010-05-04, 00:23:04,VALID,1007.1,VALID,0,VALID,102.208,VALID,0,VALID,24.6684,VALID,103,VALID,0,
2010-05-04, 00:24:04,VALID,1007.08,VALID,0,VALID,102.216,VALID,0,VALID,24.6276,VALID,103,VALID,0,
2010-05-04, 00:25:04,VALID,1007.07,VALID,0,VALID,102.193,VALID,0,VALID,24.6489,VALID,103,VALID,0,
2010-05-04, 00:26:04,VALID,1007.09,VALID,0,VALID,102.193,VALID,0,VALID,24.6294,VALID,103,VALID,0,
2010-05-04, 00:27:04,VALID,1007.06,VALID,0,VALID,102.193,VALID,0,VALID,24.6276,VALID,103,VALID,0,
2010-05-04, 00:28:04,VALID,1007.03,VALID,0,VALID,102.208,VALID,0,VALID,24.6276,VALID,103,VALID,0,
2010-05-04, 00:29:04,VALID,1007.03,VALID,0,VALID,102.216,VALID,0,VALID,24.6489,VALID,103,VALID,0,
2010-05-04, 00:30:04,VALID,1007.02,VALID,0,VALID,102.223,VALID,0,VALID,24.6471,VALID,103,VALID,0,
2010-05-04, 00:31:04,VALID,1006.99,VALID,0,VALID,102.246,VALID,0,VALID,24.6489,VALID,103,VALID,0,
2010-05-04, 00:32:04,VALID,1006.97,VALID,0,VALID,102.223,VALID,0,VALID,24.6489,VALID,103,VALID,0,
2010-05-04, 00:33:04,VALID,1006.94,VALID,0,VALID,102.231,VALID,0,VALID,24.6489,VALID,103,VALID,0,
2010-05-04, 00:34:04,VALID,1006.89,VALID,0,VALID,102.238,VALID,0,VALID,24.6294,VALID,103,VALID,0,
2010-05-04, 00:35:04,VALID,1006.88,VALID,0,VALID,102.246,VALID,0,VALID,24.6081,VALID,103,VALID,0,
2010-05-04, 00:36:04,VALID,1006.9,VALID,0,VALID,102.254,VALID,0,VALID,24.6099,VALID,103,VALID,0,
2010-05-04, 00:37:04,VALID,1006.89,VALID,0,VALID,102.261,VALID,0,VALID,24.5886,VALID,103,VALID,0,
2010-05-04, 00:38:04,VALID,1006.9,VALID,0,VALID,102.277,VALID,0,VALID,24.5886,VALID,103,VALID,0,
2010-05-04, 00:39:04,VALID,1006.86,VALID,0,VALID,102.269,VALID,0,VALID,24.6099,VALID,103,VALID,0,
2010-05-04, 00:40:04,VALID,1006.89,VALID,0,VALID,102.261,VALID,0.105969,VALID,24.6099,VALID,103,VALID,0,
2010-05-04, 00:41:04,VALID,1006.9,VALID,0,VALID,102.261,VALID,0,VALID,24.5691,VALID,103,VALID,0,
2010-05-04, 00:42:04,VALID,1006.87,VALID,0,VALID,102.284,VALID,0,VALID,24.571,VALID,103,VALID,0,
2010-05-04, 00:43:04,VALID,1006.87,VALID,0,VALID,102.292,VALID,0,VALID,24.5496,VALID,103,VALID,0,
2010-05-04, 00:44:04,VALID,1006.86,VALID,0,VALID,102.284,VALID,0,VALID,24.5515,VALID,103,VALID,0,
2010-05-04, 00:45:04,VALID,1006.86,VALID,0,VALID,102.269,VALID,0,VALID,24.5515,VALID,103,VALID,0,
2010-05-04, 00:46:04,VALID,1006.85,VALID,0,VALID,102.269,VALID,0,VALID,24.5515,VALID,103,VALID,0,
2010-05-04, 00:47:04,VALID,1006.83,VALID,0,VALID,102.284,VALID,0,VALID,24.5515,VALID,103,VALID,0,
2010-05-04, 00:48:04,VALID,1006.84,VALID,0,VALID,102.254,VALID,0,VALID,24.5515,VALID,103,VALID,0,
2010-05-04, 00:49:04,VALID,1006.82,VALID,0,VALID,102.277,VALID,0,VALID,24.5515,VALID,103,VALID,0,
2010-05-04, 00:50:04,VALID,1006.82,VALID,0,VALID,102.299,VALID,0,VALID,24.532,VALID,103,VALID,0,
2010-05-04, 00:51:04,VALID,1006.82,VALID,0,VALID,102.277,VALID,0,VALID,24.5125,VALID,103,VALID,0,
2010-05-04, 00:52:04,VALID,1006.79,VALID,0,VALID,102.292,VALID,0,VALID,24.5125,VALID,103,VALID,0,
2010-05-04, 00:53:04,VALID,1006.77,VALID,0,VALID,102.277,VALID,0,VALID,24.5125,VALID,103,VALID,0,
2010-05-04, 00:54:04,VALID,1006.74,VALID,0,VALID,102.292,VALID,0,VALID,24.493,VALID,103,VALID,0,
2010-05-04, 00:55:04,VALID,1006.74,VALID,0,VALID,102.277,VALID,0,VALID,24.493,VALID,103,VALID,0,
2010-05-04, 00:56:04,VALID,1006.7,VALID,0,VALID,102.292,VALID,0,VALID,24.493,VALID,103,VALID,0,
2010-05-04, 00:57:04,VALID,1006.71,VALID,0,VALID,102.307,VALID,0,VALID,24.493,VALID,103,VALID,0,
2010-05-04, 00:58:04,VALID,1006.7,VALID,0,VALID,102.292,VALID,0,VALID,24.4735,VALID,103,VALID,0,
2010-05-04, 00:59:04,VALID,1006.68,VALID,0,VALID,102.299,VALID,0,VALID,24.4735,VALID,103,VALID,0,
2010-05-04, 01:00:04,VALID,1006.69,VALID,0,VALID,102.284,VALID,0,VALID,24.493,VALID,103,VALID,0,
2010-05-04, 01:01:04,VALID,1006.68,VALID,0,VALID,102.299,VALID,0,VALID,24.4735,VALID,103,VALID,0,
2010-05-04, 01:02:04,VALID,1006.68,VALID,0,VALID,102.269,VALID,0,VALID,24.493,VALID,103,VALID,0,
2010-05-04, 01:03:04,VALID,1006.69,VALID,0,VALID,102.277,VALID,0,VALID,24.5125,VALID,103,VALID,0,
2010-05-04, 01:04:04,VALID,1006.7,VALID,0,VALID,102.299,VALID,0,VALID,24.493,VALID,103,VALID,0,
2010-05-04, 01:05:04,VALID,1006.72,VALID,0,VALID,102.307,VALID,0,VALID,24.493,VALID,103,VALID,0,
2010-05-04, 01:06:04,VALID,1006.74,VALID,0,VALID,102.277,VALID,0,VALID,24.493,VALID,103,VALID,0,
2010-05-04, 01:07:04,VALID,1006.72,VALID,0,VALID,102.292,VALID,0,VALID,24.4735,VALID,103,VALID,0,
2010-05-04, 01:08:04,VALID,1006.76,VALID,0,VALID,102.33,VALID,0,VALID,24.4522,VALID,103,VALID,0,
2010-05-04, 01:09:04,VALID,1006.73,VALID,0,VALID,102.315,VALID,0,VALID,24.454,VALID,103,VALID,0,
2010-05-04, 01:10:04,VALID,1006.7,VALID,0,VALID,102.299,VALID,0,VALID,24.454,VALID,103,VALID,0,
2010-05-04, 01:11:04,VALID,1006.7,VALID,0,VALID,102.307,VALID,0,VALID,24.4345,VALID,103,VALID,0,
2010-05-04, 01:12:04,VALID,1006.69,VALID,0,VALID,102.322,VALID,0,VALID,24.415,VALID,103,VALID,0,
2010-05-04, 01:13:04,VALID,1006.69,VALID,0,VALID,102.322,VALID,0,VALID,24.415,VALID,103,VALID,0,
2010-05-04, 01:14:04,VALID,1006.69,VALID,0,VALID,102.322,VALID,0.105969,VALID,24.415,VALID,103,VALID,0,
2010-05-04, 01:15:04,VALID,1006.68,VALID,0,VALID,102.292,VALID,0,VALID,24.3937,VALID,103,VALID,0,
2010-05-04, 01:16:04,VALID,1006.69,VALID,0,VALID,102.284,VALID,0,VALID,24.415,VALID,103,VALID,0,
2010-05-04, 01:17:04,VALID,1006.7,VALID,0,VALID,102.292,VALID,0,VALID,24.415,VALID,103,VALID,0,
2010-05-04, 01:18:04,VALID,1006.73,VALID,0,VALID,102.299,VALID,0,VALID,24.4132,VALID,103,VALID,0,
2010-05-04, 01:19:04,VALID,1006.69,VALID,0,VALID,102.269,VALID,0,VALID,24.4132,VALID,103,VALID,0,
2010-05-04, 01:20:04,VALID,1006.69,VALID,0,VALID,102.299,VALID,0,VALID,24.4132,VALID,103,VALID,0,
2010-05-04, 01:21:04,VALID,1006.68,VALID,0,VALID,102.284,VALID,0,VALID,24.3937,VALID,103,VALID,0,
2010-05-04, 01:22:04,VALID,1006.68,VALID,0,VALID,102.277,VALID,0,VALID,24.4132,VALID,103,VALID,0,
2010-05-04, 01:23:04,VALID,1006.65,VALID,0,VALID,102.277,VALID,0,VALID,24.3937,VALID,103,VALID,0,
2010-05-04, 01:24:04,VALID,1006.63,VALID,0,VALID,102.284,VALID,0,VALID,24.4132,VALID,103,VALID,0,
2010-05-04, 01:25:04,VALID,1006.6,VALID,0,VALID,102.254,VALID,0,VALID,24.4132,VALID,103,VALID,0,
2010-05-04, 01:26:04,VALID,1006.63,VALID,0,VALID,102.284,VALID,0,VALID,24.4345,VALID,103,VALID,0,
2010-05-04, 01:27:04,VALID,1006.62,VALID,0,VALID,102.277,VALID,0.105969,VALID,24.4132,VALID,103,VALID,0,
2010-05-04, 01:28:04,VALID,1006.65,VALID,0,VALID,102.277,VALID,0,VALID,24.4345,VALID,103,VALID,0,
2010-05-04, 01:29:04,VALID,1006.64,VALID,0,VALID,102.277,VALID,0,VALID,24.4345,VALID,103,VALID,0,
2010-05-04, 01:30:04,VALID,1006.66,VALID,0,VALID,102.261,VALID,0,VALID,24.4345,VALID,103,VALID,0,
2010-05-04, 01:31:04,VALID,1006.65,VALID,0,VALID,102.269,VALID,0,VALID,24.415,VALID,103,VALID,0,
2010-05-04, 01:32:04,VALID,1006.67,VALID,0,VALID,102.254,VALID,0,VALID,24.454,VALID,103,VALID,0,
2010-05-04, 01:33:04,VALID,1006.66,VALID,0,VALID,102.254,VALID,0,VALID,24.4345,VALID,103,VALID,0,
2010-05-04, 01:34:04,VALID,1006.66,VALID,0,VALID,102.231,VALID,0,VALID,24.4735,VALID,103,VALID,0,
2010-05-04, 01:35:04,VALID,1006.67,VALID,0,VALID,102.231,VALID,0,VALID,24.493,VALID,103,VALID,0,
2010-05-04, 01:36:04,VALID,1006.65,VALID,0,VALID,102.216,VALID,0,VALID,24.4717,VALID,103,VALID,0,
2010-05-04, 01:37:04,VALID,1006.62,VALID,0,VALID,102.2,VALID,0,VALID,24.493,VALID,103,VALID,0,
2010-05-04, 01:38:04,VALID,1006.61,VALID,0,VALID,102.231,VALID,0,VALID,24.493,VALID,103,VALID,0,
2010-05-04, 01:39:04,VALID,1006.58,VALID,0,VALID,102.231,VALID,0,VALID,24.493,VALID,103,VALID,0,
2010-05-04, 01:40:04,VALID,1006.58,VALID,0,VALID,102.238,VALID,0,VALID,24.4735,VALID,103,VALID,0,
2010-05-04, 01:41:04,VALID,1006.56,VALID,0,VALID,102.238,VALID,0,VALID,24.4735,VALID,103,VALID,0,
2010-05-04, 01:42:04,VALID,1006.54,VALID,0,VALID,102.223,VALID,0,VALID,24.4717,VALID,103,VALID,0,
2010-05-04, 01:43:04,VALID,1006.54,VALID,0,VALID,102.193,VALID,0,VALID,24.4717,VALID,103,VALID,0,
2010-05-04, 01:44:04,VALID,1006.57,VALID,0,VALID,102.223,VALID,0,VALID,24.4717,VALID,103,VALID,0,
2010-05-04, 01:45:04,VALID,1006.54,VALID,0,VALID,102.223,VALID,0,VALID,24.4735,VALID,103,VALID,0,
2010-05-04, 01:46:04,VALID,1006.56,VALID,0,VALID,102.2,VALID,0,VALID,24.493,VALID,103,VALID,0,
2010-05-04, 01:47:04,VALID,1006.57,VALID,0,VALID,102.223,VALID,0,VALID,24.493,VALID,103,VALID,0,
2010-05-04, 01:48:04,VALID,1006.59,VALID,0,VALID,102.216,VALID,0,VALID,24.493,VALID,103,VALID,0,
2010-05-04, 01:49:04,VALID,1006.58,VALID,0,VALID,102.193,VALID,0,VALID,24.4911,VALID,103,VALID,0,
2010-05-04, 01:50:04,VALID,1006.58,VALID,0,VALID,102.193,VALID,0,VALID,24.4911,VALID,103,VALID,0,
2010-05-04, 01:51:04,VALID,1006.58,VALID,0,VALID,102.2,VALID,0,VALID,24.5125,VALID,103,VALID,0,
2010-05-04, 01:52:04,VALID,1006.56,VALID,0,VALID,102.208,VALID,0,VALID,24.4911,VALID,103,VALID,0,
2010-05-04, 01:53:04,VALID,1006.59,VALID,0,VALID,102.2,VALID,0,VALID,24.5125,VALID,103,VALID,0,
2010-05-04, 01:54:04,VALID,1006.55,VALID,0,VALID,102.208,VALID,0,VALID,24.493,VALID,103,VALID,0,
2010-05-04, 01:55:04,VALID,1006.6,VALID,0,VALID,102.2,VALID,0,VALID,24.5125,VALID,103,VALID,0,
2010-05-04, 01:56:04,VALID,1006.62,VALID,0,VALID,102.208,VALID,0,VALID,24.4717,VALID,103,VALID,0,
2010-05-04, 01:57:04,VALID,1006.59,VALID,0,VALID,102.223,VALID,0,VALID,24.4735,VALID,103,VALID,0,
2010-05-04, 01:58:04,VALID,1006.63,VALID,0,VALID,102.238,VALID,0,VALID,24.454,VALID,103,VALID,0,
2010-05-04, 01:59:04,VALID,1006.61,VALID,0,VALID,102.216,VALID,0,VALID,24.4522,VALID,103,VALID,0,
2010-05-04, 02:00:04,VALID,1006.62,VALID,0,VALID,102.223,VALID,0,VALID,24.4522,VALID,103,VALID,0,
2010-05-04, 02:01:04,VALID,1006.59,VALID,0,VALID,102.277,VALID,0,VALID,24.4132,VALID,103,VALID,0,
2010-05-04, 02:02:04,VALID,1006.62,VALID,0,VALID,102.277,VALID,0,VALID,24.4132,VALID,103,VALID,0,
2010-05-04, 02:03:04,VALID,1006.64,VALID,0,VALID,102.261,VALID,0,VALID,24.4132,VALID,103,VALID,0,
2010-05-04, 02:04:04,VALID,1006.62,VALID,0,VALID,102.231,VALID,0,VALID,24.4345,VALID,103,VALID,0,
2010-05-04, 02:05:04,VALID,1006.67,VALID,0,VALID,102.238,VALID,0,VALID,24.4345,VALID,103,VALID,0,
2010-05-04, 02:06:04,VALID,1006.65,VALID,0,VALID,102.223,VALID,0,VALID,24.4735,VALID,103,VALID,0,
2010-05-04, 02:07:04,VALID,1006.66,VALID,0,VALID,102.193,VALID,0,VALID,24.493,VALID,103,VALID,0,
2010-05-04, 02:08:04,VALID,1006.66,VALID,0,VALID,102.193,VALID,0,VALID,24.4911,VALID,103,VALID,0,
2010-05-04, 02:09:04,VALID,1006.63,VALID,0,VALID,102.185,VALID,0,VALID,24.5106,VALID,103,VALID,0,
2010-05-04, 02:10:04,VALID,1006.64,VALID,0,VALID,102.147,VALID,0,VALID,24.5301,VALID,134,VALID,0,
2010-05-04, 02:11:04,VALID,1006.61,VALID,0,VALID,102.139,VALID,0,VALID,24.5905,VALID,134,VALID,0,
2010-05-04, 02:12:04,VALID,1006.59,VALID,0,VALID,102.147,VALID,0,VALID,24.6294,VALID,134,VALID,0,
2010-05-04, 02:13:04,VALID,1006.57,VALID,0,VALID,102.116,VALID,0,VALID,24.6489,VALID,134,VALID,0,
2010-05-04, 02:14:04,VALID,1006.56,VALID,0,VALID,102.139,VALID,0,VALID,24.6471,VALID,134,VALID,0,
2010-05-04, 02:15:04,VALID,1006.57,VALID,0,VALID,102.124,VALID,0.105969,VALID,24.686,VALID,134,VALID,0,
2010-05-04, 02:16:04,VALID,1006.58,VALID,0,VALID,102.139,VALID,0,VALID,24.686,VALID,134,VALID,0,
2010-05-04, 02:17:04,VALID,1006.57,VALID,0,VALID,102.147,VALID,0,VALID,24.7269,VALID,134,VALID,0,
2010-05-04, 02:18:04,VALID,1006.55,VALID,0,VALID,102.132,VALID,0,VALID,24.7659,VALID,134,VALID,0,
2010-05-04, 02:19:04,VALID,1006.59,VALID,0,VALID,102.147,VALID,0.105969,VALID,24.7445,VALID,134,VALID,0,
2010-05-04, 02:20:04,VALID,1006.57,VALID,0,VALID,102.17,VALID,0,VALID,24.7854,VALID,134,VALID,0,
2010-05-04, 02:21:04,VALID,1006.56,VALID,0,VALID,102.17,VALID,0,VALID,24.7835,VALID,134,VALID,0,
2010-05-04, 02:22:04,VALID,1006.55,VALID,0,VALID,102.177,VALID,0,VALID,24.7835,VALID,134,VALID,0,
2010-05-04, 02:23:04,VALID,1006.55,VALID,0,VALID,102.17,VALID,0,VALID,24.8049,VALID,134,VALID,0,
2010-05-04, 02:24:04,VALID,1006.53,VALID,0,VALID,102.185,VALID,0,VALID,24.8049,VALID,134,VALID,0,
2010-05-04, 02:25:04,VALID,1006.54,VALID,0,VALID,102.223,VALID,0.105969,VALID,24.7835,VALID,134,VALID,0,
2010-05-04, 02:26:04,VALID,1006.54,VALID,0,VALID,102.231,VALID,0,VALID,24.7835,VALID,134,VALID,0,
2010-05-04, 02:27:04,VALID,1006.55,VALID,0,VALID,102.223,VALID,0.105969,VALID,24.803,VALID,134,VALID,0,
2010-05-04, 02:28:04,VALID,1006.53,VALID,0,VALID,102.246,VALID,0,VALID,24.803,VALID,134,VALID,0,
2010-05-04, 02:29:04,VALID,1006.52,VALID,0,VALID,102.223,VALID,0,VALID,24.8244,VALID,134,VALID,0,
2010-05-04, 02:30:04,VALID,1006.47,VALID,0,VALID,102.238,VALID,0,VALID,24.842,VALID,134,VALID,0,
2010-05-04, 02:31:04,VALID,1006.46,VALID,0,VALID,102.246,VALID,0.105969,VALID,24.8633,VALID,134,VALID,0,
2010-05-04, 02:32:04,VALID,1006.45,VALID,0,VALID,102.254,VALID,0.105969,VALID,24.8225,VALID,134,VALID,0,
2010-05-04, 02:33:04,VALID,1006.38,VALID,0,VALID,102.238,VALID,0,VALID,24.8615,VALID,134,VALID,0,
2010-05-04, 02:34:04,VALID,1006.38,VALID,0,VALID,102.238,VALID,0.105969,VALID,24.8615,VALID,134,VALID,0,
2010-05-04, 02:35:04,VALID,1006.33,VALID,0,VALID,102.231,VALID,0,VALID,24.8615,VALID,134,VALID,0,
2010-05-04, 02:36:04,VALID,1006.31,VALID,0,VALID,102.261,VALID,0,VALID,24.8809,VALID,134,VALID,0,
2010-05-04, 02:37:04,VALID,1006.3,VALID,0,VALID,102.277,VALID,0.105969,VALID,24.9023,VALID,134,VALID,0,
2010-05-04, 02:38:04,VALID,1006.3,VALID,0,VALID,102.261,VALID,0,VALID,24.8809,VALID,134,VALID,0,
2010-05-04, 02:39:04,VALID,1006.28,VALID,0,VALID,102.261,VALID,0,VALID,24.9218,VALID,134,VALID,0,
2010-05-04, 02:40:04,VALID,1006.29,VALID,0,VALID,102.277,VALID,0,VALID,24.9004,VALID,134,VALID,0,
2010-05-04, 02:41:04,VALID,1006.31,VALID,0,VALID,102.299,VALID,0.105969,VALID,24.9004,VALID,134,VALID,0,
2010-05-04, 02:42:04,VALID,1006.34,VALID,0,VALID,102.292,VALID,0,VALID,24.9004,VALID,134,VALID,0,
2010-05-04, 02:43:04,VALID,1006.33,VALID,0,VALID,102.261,VALID,0.105969,VALID,24.8809,VALID,134,VALID,0,
2010-05-04, 02:44:04,VALID,1006.37,VALID,0,VALID,102.277,VALID,0.105969,VALID,24.9004,VALID,134,VALID,0,
2010-05-04, 02:45:04,VALID,1006.39,VALID,0,VALID,102.269,VALID,0.105969,VALID,24.8809,VALID,134,VALID,0,
2010-05-04, 02:46:04,VALID,1006.42,VALID,0,VALID,102.284,VALID,0,VALID,24.9023,VALID,134,VALID,0,
2010-05-04, 02:47:04,VALID,1006.46,VALID,0,VALID,102.307,VALID,0.105969,VALID,24.8615,VALID,134,VALID,0,
2010-05-04, 02:48:04,VALID,1006.47,VALID,0,VALID,102.322,VALID,0,VALID,24.8615,VALID,134,VALID,0,
2010-05-04, 02:49:04,VALID,1006.5,VALID,0,VALID,102.292,VALID,0,VALID,24.8615,VALID,134,VALID,0,
2010-05-04, 02:50:04,VALID,1006.5,VALID,0,VALID,102.315,VALID,0,VALID,24.842,VALID,134,VALID,0,
2010-05-04, 02:51:04,VALID,1006.48,VALID,0,VALID,102.307,VALID,0.105969,VALID,24.8225,VALID,134,VALID,0,
2010-05-04, 02:52:04,VALID,1006.49,VALID,0,VALID,102.322,VALID,0.105969,VALID,24.8225,VALID,134,VALID,0,
2010-05-04, 02:53:04,VALID,1006.47,VALID,0,VALID,102.322,VALID,0,VALID,24.8206,VALID,134,VALID,0,
2010-05-04, 02:54:04,VALID,1006.48,VALID,0,VALID,102.315,VALID,0.105969,VALID,24.8225,VALID,134,VALID,0,
2010-05-04, 02:55:04,VALID,1006.49,VALID,0,VALID,102.307,VALID,0,VALID,24.8225,VALID,134,VALID,0,
2010-05-04, 02:56:04,VALID,1006.49,VALID,0,VALID,102.299,VALID,0,VALID,24.842,VALID,134,VALID,0,
2010-05-04, 02:57:04,VALID,1006.49,VALID,0,VALID,102.307,VALID,0,VALID,24.8438,VALID,134,VALID,0,
2010-05-04, 02:58:04,VALID,1006.48,VALID,0,VALID,102.33,VALID,0.105969,VALID,24.8438,VALID,134,VALID,0,
2010-05-04, 02:59:04,VALID,1006.47,VALID,0,VALID,102.307,VALID,0,VALID,24.8225,VALID,134,VALID,0,
2010-05-04, 03:00:04,VALID,1006.45,VALID,0,VALID,102.315,VALID,0,VALID,24.8438,VALID,134,VALID,0,
2010-05-04, 03:01:04,VALID,1006.46,VALID,0,VALID,102.315,VALID,0,VALID,24.8049,VALID,134,VALID,0,
2010-05-04, 03:02:04,VALID,1006.47,VALID,0,VALID,102.322,VALID,0,VALID,24.8262,VALID,134,VALID,0,
2010-05-04, 03:03:04,VALID,1006.47,VALID,0,VALID,102.338,VALID,0,VALID,24.8067,VALID,134,VALID,0,
2010-05-04, 03:04:04,VALID,1006.48,VALID,0,VALID,102.33,VALID,0,VALID,24.7854,VALID,134,VALID,0,
2010-05-04, 03:05:04,VALID,1006.5,VALID,0,VALID,102.33,VALID,0,VALID,24.7872,VALID,134,VALID,0,
2010-05-04, 03:06:04,VALID,1006.52,VALID,0,VALID,102.315,VALID,0,VALID,24.7872,VALID,134,VALID,0,
2010-05-04, 03:07:04,VALID,1006.52,VALID,0,VALID,102.345,VALID,0,VALID,24.7678,VALID,134,VALID,0,
2010-05-04, 03:08:04,VALID,1006.54,VALID,0,VALID,102.315,VALID,0,VALID,24.7464,VALID,134,VALID,0,
2010-05-04, 03:09:04,VALID,1006.54,VALID,0,VALID,102.338,VALID,0,VALID,24.7269,VALID,134,VALID,0,
2010-05-04, 03:10:04,VALID,1006.54,VALID,0,VALID,102.338,VALID,0,VALID,24.7483,VALID,134,VALID,0,
2010-05-04, 03:11:04,VALID,1006.52,VALID,0,VALID,102.338,VALID,0,VALID,24.7269,VALID,134,VALID,0,
2010-05-04, 03:12:04,VALID,1006.52,VALID,0,VALID,102.33,VALID,0,VALID,24.7288,VALID,134,VALID,0,
2010-05-04, 03:13:04,VALID,1006.5,VALID,0,VALID,102.33,VALID,0,VALID,24.7269,VALID,134,VALID,0,
2010-05-04, 03:14:04,VALID,1006.53,VALID,0,VALID,102.322,VALID,0,VALID,24.7074,VALID,114,VALID,0,
2010-05-04, 03:15:04,VALID,1006.5,VALID,0,VALID,102.315,VALID,0,VALID,24.7483,VALID,113,VALID,0,
2010-05-04, 03:16:04,VALID,1006.51,VALID,0,VALID,102.315,VALID,0,VALID,24.725,VALID,44,VALID,0,
2010-05-04, 03:17:04,VALID,1006.54,VALID,0,VALID,102.322,VALID,0,VALID,24.7445,VALID,44,VALID,0,
2010-05-04, 03:18:04,VALID,1006.55,VALID,0,VALID,102.299,VALID,0.105969,VALID,24.7659,VALID,44,VALID,0,
2010-05-04, 03:19:04,VALID,1006.57,VALID,0,VALID,102.322,VALID,0,VALID,24.7854,VALID,47,VALID,0,
2010-05-04, 03:20:04,VALID,1006.52,VALID,0,VALID,102.33,VALID,0.105969,VALID,24.764,VALID,47,VALID,0,
2010-05-04, 03:21:04,VALID,1006.51,VALID,0,VALID,102.315,VALID,0,VALID,24.8049,VALID,47,VALID,0,
2010-05-04, 03:22:04,VALID,1006.48,VALID,0,VALID,102.307,VALID,0.105969,VALID,24.8244,VALID,47,VALID,0,
2010-05-04, 03:23:04,VALID,1006.47,VALID,0,VALID,102.322,VALID,0.105969,VALID,24.8244,VALID,47,VALID,0,
2010-05-04, 03:24:04,VALID,1006.45,VALID,0,VALID,102.284,VALID,0.105969,VALID,24.8225,VALID,47,VALID,0,
2010-05-04, 03:25:04,VALID,1006.44,VALID,0,VALID,102.299,VALID,0.105969,VALID,24.842,VALID,47,VALID,0,
2010-05-04, 03:26:04,VALID,1006.44,VALID,0,VALID,102.315,VALID,0,VALID,24.842,VALID,47,VALID,0,
2010-05-04, 03:27:04,VALID,1006.41,VALID,0,VALID,102.307,VALID,0.105969,VALID,24.842,VALID,47,VALID,0,
2010-05-04, 03:28:04,VALID,1006.43,VALID,0,VALID,102.322,VALID,0.105969,VALID,24.8225,VALID,47,VALID,0,
2010-05-04, 03:29:04,VALID,1006.42,VALID,0,VALID,102.322,VALID,0.105969,VALID,24.8225,VALID,47,VALID,0,
2010-05-04, 03:30:04,VALID,1006.41,VALID,0,VALID,102.322,VALID,0.105969,VALID,24.8225,VALID,47,VALID,0,
2010-05-04, 03:31:04,VALID,1006.41,VALID,0,VALID,102.322,VALID,0.105969,VALID,24.8225,VALID,47,VALID,0,
2010-05-04, 03:32:04,VALID,1006.42,VALID,0,VALID,102.33,VALID,0.105969,VALID,24.803,VALID,47,VALID,0,
2010-05-04, 03:33:04,VALID,1006.41,VALID,0,VALID,102.338,VALID,0.105969,VALID,24.803,VALID,47,VALID,0,
2010-05-04, 03:34:04,VALID,1006.42,VALID,0,VALID,102.338,VALID,0.105969,VALID,24.8225,VALID,47,VALID,0,
2010-05-04, 03:35:04,VALID,1006.4,VALID,0,VALID,102.338,VALID,0.105969,VALID,24.803,VALID,47,VALID,0,
2010-05-04, 03:36:04,VALID,1006.39,VALID,0,VALID,102.322,VALID,0.105969,VALID,24.8225,VALID,47,VALID,0,
2010-05-04, 03:37:04,VALID,1006.39,VALID,0,VALID,102.33,VALID,0,VALID,24.8225,VALID,47,VALID,0,
2010-05-04, 03:38:04,VALID,1006.39,VALID,0,VALID,102.322,VALID,0.105969,VALID,24.8225,VALID,47,VALID,0,
2010-05-04, 03:39:04,VALID,1006.39,VALID,0,VALID,102.33,VALID,0,VALID,24.8438,VALID,47,VALID,0,
2010-05-04, 03:40:04,VALID,1006.38,VALID,0,VALID,102.33,VALID,0.105969,VALID,24.842,VALID,47,VALID,0,
2010-05-04, 03:41:04,VALID,1006.37,VALID,0,VALID,102.315,VALID,0.105969,VALID,24.842,VALID,47,VALID,0,
2010-05-04, 03:42:04,VALID,1006.38,VALID,0,VALID,102.315,VALID,0.105969,VALID,24.842,VALID,47,VALID,0,
2010-05-04, 03:43:04,VALID,1006.37,VALID,0,VALID,102.33,VALID,0.105969,VALID,24.842,VALID,47,VALID,0,
2010-05-04, 03:44:04,VALID,1006.37,VALID,0,VALID,102.322,VALID,0.105969,VALID,24.842,VALID,47,VALID,0,
2010-05-04, 03:45:04,VALID,1006.36,VALID,0,VALID,102.345,VALID,0,VALID,24.8615,VALID,47,VALID,0,
2010-05-04, 03:46:04,VALID,1006.31,VALID,0,VALID,102.315,VALID,0.105969,VALID,24.8615,VALID,47,VALID,0,
2010-05-04, 03:47:04,VALID,1006.31,VALID,0,VALID,102.322,VALID,0.105969,VALID,24.8615,VALID,47,VALID,0,
2010-05-04, 03:48:04,VALID,1006.31,VALID,0,VALID,102.33,VALID,0,VALID,24.8615,VALID,47,VALID,0,
2010-05-04, 03:49:04,VALID,1006.3,VALID,0,VALID,102.33,VALID,0.105969,VALID,24.8615,VALID,47,VALID,0,
2010-05-04, 03:50:04,VALID,1006.31,VALID,0,VALID,102.322,VALID,0,VALID,24.8809,VALID,47,VALID,0,
2010-05-04, 03:51:04,VALID,1006.32,VALID,0,VALID,102.322,VALID,0.105969,VALID,24.9218,VALID,47,VALID,0,
2010-05-04, 03:52:04,VALID,1006.36,VALID,0,VALID,102.33,VALID,0.105969,VALID,24.8809,VALID,47,VALID,0,
2010-05-04, 03:53:04,VALID,1006.35,VALID,0,VALID,102.338,VALID,0,VALID,24.8615,VALID,47,VALID,0,
2010-05-04, 03:54:04,VALID,1006.38,VALID,0,VALID,102.368,VALID,0,VALID,24.8828,VALID,47,VALID,0,
2010-05-04, 03:55:04,VALID,1006.38,VALID,0,VALID,102.338,VALID,0.105969,VALID,24.8828,VALID,47,VALID,0,
2010-05-04, 03:56:04,VALID,1006.4,VALID,0,VALID,102.33,VALID,0,VALID,24.842,VALID,47,VALID,0,
2010-05-04, 03:57:04,VALID,1006.41,VALID,0,VALID,102.345,VALID,0,VALID,24.8633,VALID,47,VALID,0,